Wind_Speed
23 24 25 26 27 27 28 29 29 29 30 31 32 32 33 35 36 38 39 41 42 44 45 45 47 48 50 51 53 54 56 56 58 60 60 61 62 62 62 62 63 63 64
25 26 27 28 29 29 30 31 31 32 32 32 33 33 34 35 36 38 39 40 42 43 44 46 47 49 50 52 53 55 57 57 59 61 62 62 62 62 63 64 65 65 66
25 27 28 30 31 31 32 33 33 33 34 34 34 34 35 35 36 37 38 40 41 43 44 46 48 49 51 52 54 56 58 59 61 62 64 64 63 63 64 65 66 66 67
27 29 30 32 32 33 33 33 33 33 33 33 33 34 34 35 36 37 38 39 40 41 43 45 47 49 51 53 55 57 59 61 62 64 66 67 67 67 65 64 65 67 68
30 31 32 33 33 33 32 32 32 31 31 31 31 32 32 33 34 35 36 38 40 42 44 46 47 49 51 52 55 57 59 61 63 65 67 68 70 71 71 68 67 68 69
31 32 32 32 32 32 32 30 29 29 29 29 29 30 31 33 34 36 38 40 42 44 46 48 50 52 54 55 57 59 61 63 65 67 69 70 71 72 74 73 71 71 71
32 32 32 32 32 31 30 28 28 28 29 29 31 32 33 35 37 39 41 43 45 48 50 52 54 56 58 60 62 64 65 67 68 70 71 73 73 75 76 77 75 75 73
31 32 32 32 31 30 29 29 29 29 30 31 33 35 37 39 41 43 45 48 50 52 55 57 59 62 64 66 67 69 70 71 73 74 75 76 76 77 78 79 80 79 77
31 32 32 31 31 30 30 30 31 32 33 35 37 39 41 44 46 49 51 54 56 58 60 63 65 67 69 71 73 74 75 76 77 78 79 79 80 81 81 82 82 83 81
31 32 32 32 31 32 32 33 34 36 38 40 42 44 47 49 52 54 57 60 62 65 67 69 71 73 75 77 78 79 80 80 81 82 82 83 83 84 84 84 84 85 84
32 33 33 33 33 34 35 36 38 40 42 45 47 49 52 55 57 60 63 66 68 71 73 75 77 79 80 82 83 84 84 85 85 86 86 86 86 87 86 86 86 85 85
34 34 34 35 35 37 38 40 42 44 47 50 52 55 58 60 63 66 69 72 74 76 79 81 82 84 85 86 87 88 88 88 88 87 88 87 87 87 86 85 84 83 83
36 36 36 37 38 40 41 44 46 49 52 55 58 61 63 66 69 72 74 77 79 81 83 85 87 88 90 90 91 91 91 90 88 87 86 84 84 82 81 81 80 79 78
37 37 38 40 42 43 46 48 51 54 57 60 63 66 69 72 74 77 79 81 83 85 87 89 91 92 92 92 91 91 89 87 85 83 81 79 78 76 76 75 74 73 72
38 39 41 43 45 47 50 53 56 59 62 65 68 71 74 76 79 81 83 85 87 89 91 92 93 92 91 90 88 86 83 80 77 75 73 71 71 70 69 68 67 67 66
41 42 44 46 49 52 54 57 60 64 67 70 72 75 78 80 82 84 86 88 90 92 92 92 91 89 86 83 80 77 74 71 68 65 64 63 62 62 62 61 61 60 59
44 45 47 50 53 56 58 61 65 68 71 74 77 79 81 83 85 87 89 91 92 92 91 88 85 81 76 73 70 67 65 62 60 58 57 57 56 56 55 55 54 54 53
46 48 51 53 56 59 63 66 69 72 75 78 80 82 84 86 88 89 91 91 91 89 86 81 77 72 67 65 62 60 58 56 54 53 52 51 49 49 49 49 48 48 48
49 51 54 57 60 63 66 69 72 75 78 80 82 84 86 88 89 90 90 89 87 83 78 73 68 64 60 58 57 55 52 50 48 47 47 46 44 44 44 43 43 43 43
52 54 57 60 64 67 70 73 76 78 80 82 84 86 88 90 90 89 87 84 80 75 70 65 62 59 56 54 53 51 49 47 45 43 43 42 41 41 40 40 39 39 40
55 58 61 64 67 71 73 76 78 80 82 84 86 87 89 89 88 86 82 77 72 68 63 60 57 55 53 51 49 48 47 45 42 40 39 39 39 39 38 38 38 38 38
58 61 64 67 70 73 76 78 80 82 83 85 87 87 87 86 83 79 74 69 65 61 58 55 53 51 49 48 47 45 44 43 41 39 38 38 38 38 37 37 37 37 37
61 64 67 70 73 76 78 80 82 83 85 86 87 86 85 81 77 72 67 63 60 57 55 53 50 47 45 45 44 43 42 41 40 39 38 37 37 36 36 35 35 36 36
65 68 70 73 75 77 79 82 83 85 86 86 86 84 81 75 70 65 62 59 56 54 52 50 48 45 43 42 40 40 40 39 39 38 37 36 35 34 34 34 34 35 35
68 70 73 75 77 79 81 82 84 86 86 85 83 79 74 69 63 59 56 55 53 52 51 49 47 44 41 39 39 38 38 37 36 35 34 33 32 32 33 33 33 34 34
71 73 75 77 78 80 82 83 85 86 86 83 78 73 68 63 58 55 51 50 50 49 48 47 46 43 41 39 38 38 37 36 35 34 32 31 31 31 31 32 33 33 34
Wind_Direction
286 287 288 289 289 289 288 288 288 288 287 287 287 287 286 286 286 286 286 286 285 285 285 285 284 284 283 283 282 282 282 281 281 281 281 281 282 282 283 282 282 282 283
285 286 288 288 289 289 289 289 289 289 288 288 288 288 287 287 287 287 288 288 288 287 287 287 287 287 287 286 286 286 285 285 284 284 284 283 282 283 282 282 282 282 282
287 288 288 289 289 289 289 290 291 290 290 290 289 289 289 289 290 290 290 290 289 289 289 289 289 288 288 288 288 287 287 286 286 286 285 285 285 282 281 281 281 281 281
289 289 289 288 289 289 290 291 292 292 292 292 292 292 292 292 292 292 292 292 292 291 291 290 289 289 289 288 287 287 287 286 286 285 285 286 286 285 283 280 279 279 279
288 288 288 288 288 289 290 292 293 294 294 295 295 295 295 295 295 295 296 296 296 295 294 293 293 292 291 289 288 287 287 286 286 286 285 285 285 285 285 283 280 279 278
288 288 288 288 288 290 291 293 294 295 296 297 297 297 298 298 298 298 298 298 297 297 296 295 294 293 292 291 290 289 288 287 286 285 285 284 284 283 283 283 282 280 279
289 289 288 288 289 291 292 293 294 296 297 298 298 299 299 299 299 299 299 298 298 297 296 296 295 294 293 292 291 290 289 288 287 286 284 284 283 283 282 282 281 280 278
290 288 288 289 290 291 293 294 296 297 298 299 299 299 299 299 299 299 299 298 297 296 296 295 295 294 293 292 291 290 289 288 286 285 284 283 283 282 281 281 280 279 278
290 288 287 288 290 292 293 295 297 298 298 299 300 300 300 300 299 299 298 298 297 297 296 295 295 294 293 292 291 290 289 288 287 285 284 283 282 281 280 279 279 278 277
289 288 287 288 290 292 295 296 297 298 299 299 299 300 300 300 300 299 299 299 298 298 297 296 296 295 294 293 292 291 290 288 287 286 284 283 281 280 279 278 277 277 277
289 287 287 289 292 293 295 297 298 298 299 299 300 301 301 301 301 301 300 300 299 298 298 297 296 295 294 294 293 292 290 289 288 286 284 283 281 280 278 277 277 276 276
288 287 288 291 293 295 296 297 298 298 299 300 301 301 302 302 301 301 301 300 300 299 298 298 297 297 296 295 294 292 291 290 288 286 284 283 281 280 278 277 277 276 276
287 289 290 293 295 296 297 298 298 299 300 301 302 303 303 302 302 302 302 301 301 300 300 299 299 298 297 296 295 294 292 291 289 287 285 283 281 280 278 277 276 276 275
288 290 292 294 295 296 297 298 299 301 302 303 303 303 304 304 303 303 303 302 302 302 301 301 300 300 299 298 296 295 293 291 289 287 286 284 283 281 280 278 278 277 275
288 291 293 294 296 297 298 299 301 302 303 304 304 304 305 305 304 304 304 304 304 303 303 303 302 302 301 299 297 295 294 292 290 289 288 286 285 283 282 280 279 278 277
290 292 294 295 296 297 299 300 302 303 304 304 305 305 305 305 305 305 305 305 305 305 305 304 304 303 301 300 299 297 296 295 293 291 289 287 286 284 283 282 280 278 277
290 292 294 295 297 298 300 301 302 304 305 305 306 306 306 307 307 307 307 307 307 306 306 306 305 304 303 301 300 299 298 298 296 294 291 289 287 285 283 282 280 279 278
291 293 295 297 298 300 301 303 304 305 306 307 307 308 308 308 308 309 309 308 308 308 307 306 306 305 304 303 302 302 301 300 299 296 294 292 289 286 284 283 281 280 279
292 294 296 298 300 301 303 304 306 307 307 308 309 309 309 310 310 310 310 309 309 309 308 308 307 306 306 305 305 304 303 302 300 298 296 294 292 289 287 286 283 281 279
294 296 298 300 302 303 305 306 307 308 309 309 310 310 311 311 311 311 311 310 310 309 309 309 309 309 308 308 307 305 304 303 302 300 298 295 293 291 290 288 286 284 281
296 298 300 302 304 305 306 307 308 309 310 311 311 312 312 312 312 312 311 310 310 310 310 310 311 310 309 309 308 307 306 305 303 302 299 296 295 293 291 290 288 286 284
298 300 302 304 306 307 308 309 309 310 311 312 312 312 313 313 312 312 311 310 310 310 311 311 311 311 310 309 308 308 307 306 305 304 301 298 296 294 292 290 289 287 286
300 302 304 305 307 308 309 310 310 311 312 312 313 313 313 313 312 311 311 311 310 311 311 312 312 312 311 310 309 309 308 307 306 305 303 301 298 296 293 291 290 289 288
302 304 305 307 308 309 310 311 311 312 313 313 313 313 313 312 312 311 311 311 311 311 311 312 312 312 312 311 310 310 309 308 307 305 304 302 299 297 295 293 291 290 289
304 305 307 308 309 310 311 312 312 313 313 314 314 313 313 312 312 311 312 312 312 312 313 313 313 314 314 313 312 312 311 310 309 308 306 303 300 298 296 294 292 291 290
305 307 308 309 309 310 311 312 312 313 314 314 314 313 312 312 312 311 312 312 312 313 313 314 314 315 315 315 314 314 313 312 312 311 309 306 303 301 298 295 294 292 291
Height
5821 5819 5818 5816 5814 5812 5811 5809 5807 5806 5804 5802 5800 5798 5796 5793 5791 5789 5787 5785 5782 5780 5778 5777 5775 5772 5770 5767 5765 5762 5760 5758 5754 5752 5750 5749 5746 5745 5743 5741 5738 5736 5733
5817 5815 5813 5811 5809 5807 5805 5803 5801 5799 5797 5795 5793 5791 5788 5786 5783 5781 5779 5776 5774 5771 5769 5766 5764 5761 5759 5756 5753 5750 5747 5744 5740 5737 5734 5733 5734 5732 5728 5725 5723 5721 5718
5812 5810 5808 5806 5804 5801 5799 5797 5794 5792 5790 5787 5785 5783 5781 5778 5776 5773 5771 5768 5765 5763 5760 5757 5753 5750 5747 5744 5740 5736 5732 5729 5726 5721 5717 5714 5715 5715 5713 5710 5707 5704 5701
5807 5805 5803 5800 5798 5795 5793 5790 5788 5785 5783 5780 5778 5775 5773 5771 5768 5766 5763 5759 5756 5753 5750 5747 5743 5740 5736 5732 5728 5723 5719 5714 5711 5707 5702 5698 5695 5692 5693 5695 5692 5688 5685
5801 5799 5796 5794 5792 5789 5786 5784 5781 5778 5776 5773 5771 5768 5766 5763 5760 5757 5755 5751 5748 5744 5740 5736 5732 5728 5724 5720 5715 5710 5705 5700 5696 5691 5687 5682 5677 5672 5669 5672 5673 5670 5667
5795 5792 5790 5787 5785 5782 5780 5777 5775 5772 5769 5767 5764 5762 5759 5756 5753 5749 5746 5742 5738 5734 5729 5725 5720 5716 5711 5706 5701 5695 5690 5685 5680 5674 5669 5664 5660 5656 5650 5648 5650 5649 5648
5788 5785 5782 5780 5778 5775 5773 5771 5768 5766 5763 5761 5758 5755 5752 5748 5745 5741 5737 5733 5728 5723 5718 5712 5707 5702 5696 5691 5685 5679 5674 5668 5662 5657 5651 5645 5641 5636 5631 5627 5626 5625 5626
5781 5778 5775 5773 5770 5768 5766 5764 5762 5759 5756 5753 5750 5747 5743 5740 5736 5731 5727 5722 5717 5711 5705 5699 5693 5687 5681 5674 5668 5662 5655 5649 5643 5637 5631 5625 5620 5614 5609 5605 5601 5600 5602
5774 5771 5768 5766 5764 5762 5760 5757 5755 5752 5749 5745 5742 5738 5734 5730 5725 5720 5715 5709 5703 5697 5691 5684 5677 5670 5663 5656 5649 5642 5635 5628 5622 5615 5609 5603 5598 5591 5586 5581 5577 5573 5575
5766 5764 5761 5759 5757 5755 5752 5750 5747 5744 5740 5736 5732 5728 5723 5718 5713 5707 5701 5694 5688 5681 5674 5667 5659 5652 5644 5635 5628 5621 5613 5606 5599 5592 5585 5579 5573 5567 5561 5556 5552 5547 5546
5759 5756 5754 5752 5750 5747 5745 5742 5738 5734 5730 5726 5721 5716 5711 5705 5699 5692 5686 5678 5671 5664 5656 5648 5640 5631 5622 5613 5605 5597 5589 5581 5574 5566 5558 5553 5546 5540 5536 5530 5526 5523 5519
5751 5749 5747 5745 5742 5739 5736 5732 5728 5724 5720 5715 5709 5704 5697 5691 5684 5677 5669 5661 5653 5644 5635 5627 5618 5608 5599 5589 5579 5571 5562 5554 5547 5539 5531 5525 5518 5513 5508 5503 5500 5498 5495
5744 5742 5739 5736 5734 5730 5727 5722 5718 5713 5708 5702 5696 5690 5683 5676 5668 5660 5651 5642 5633 5624 5614 5604 5594 5584 5573 5563 5552 5542 5534 5526 5518 5510 5503 5497 5490 5486 5481 5477 5474 5473 5470
5736 5733 5731 5728 5724 5720 5716 5712 5706 5701 5695 5689 5682 5675 5667 5658 5650 5641 5631 5622 5612 5602 5591 5580 5569 5558 5547 5535 5524 5514 5505 5497 5490 5483 5476 5470 5464 5460 5456 5453 5451 5449 5447
5727 5725 5722 5718 5714 5710 5705 5700 5694 5688 5681 5674 5666 5658 5649 5640 5631 5621 5611 5600 5589 5578 5566 5555 5544 5531 5519 5507 5496 5486 5478 5471 5465 5458 5452 5446 5440 5436 5433 5431 5429 5427 5426
5718 5715 5712 5708 5703 5698 5693 5687 5681 5674 5666 5658 5650 5641 5631 5621 5611 5600 5590 5578 5567 5554 5542 5529 5517 5506 5493 5481 5470 5460 5454 5448 5442 5437 5431 5426 5421 5416 5413 5410 5409 5408 5407
5709 5705 5701 5697 5692 5686 5681 5674 5667 5659 5651 5642 5632 5622 5612 5602 5591 5579 5567 5555 5543 5531 5518 5505 5492 5482 5471 5459 5450 5441 5433 5428 5422 5417 5412 5408 5403 5399 5396 5393 5391 5390 5389
5698 5694 5690 5685 5679 5673 5667 5659 5651 5643 5634 5624 5613 5602 5591 5581 5569 5557 5544 5532 5519 5507 5494 5482 5471 5460 5451 5440 5432 5424 5418 5412 5406 5400 5395 5391 5387 5383 5380 5378 5377 5375 5374
5687 5683 5678 5672 5666 5659 5652 5644 5635 5626 5616 5606 5595 5583 5570 5559 5548 5535 5522 5509 5496 5485 5473 5462 5451 5442 5434 5425 5416 5409 5403 5398 5392 5386 5381 5376 5373 5369 5366 5364 5363 5362 5360
5675 5670 5664 5658 5651 5644 5636 5628 5618 5609 5598 5587 5575 5562 5549 5537 5525 5512 5499 5487 5474 5464 5454 5445 5435 5426 5418 5410 5402 5395 5389 5384 5379 5374 5369 5364 5360 5357 5353 5351 5350 5349 5348
5662 5657 5650 5644 5636 5628 5620 5611 5601 5590 5580 5568 5556 5543 5529 5516 5503 5491 5479 5466 5456 5447 5438 5430 5422 5413 5404 5397 5389 5382 5376 5371 5366 5362 5357 5353 5349 5345 5342 5339 5338 5337 5335
5649 5643 5636 5629 5620 5611 5602 5593 5583 5573 5562 5550 5537 5524 5510 5496 5482 5471 5460 5450 5439 5431 5423 5416 5409 5401 5392 5385 5378 5371 5365 5359 5354 5350 5346 5342 5338 5334 5331 5328 5326 5324 5323
5635 5628 5621 5613 5604 5593 5583 5574 5564 5553 5542 5531 5518 5505 5492 5479 5465 5453 5444 5435 5426 5417 5410 5402 5396 5389 5382 5374 5367 5360 5354 5348 5343 5339 5334 5330 5327 5323 5320 5318 5315 5313 5311
5620 5612 5605 5597 5587 5577 5566 5555 5544 5533 5523 5511 5499 5486 5473 5463 5451 5440 5430 5421 5413 5405 5397 5390 5383 5377 5371 5364 5357 5351 5345 5339 5333 5328 5324 5320 5316 5312 5309 5307 5305 5302 5300
5604 5596 5588 5579 5570 5559 5548 5536 5524 5514 5503 5492 5479 5468 5456 5445 5436 5428 5418 5409 5401 5391 5384 5378 5371 5365 5360 5354 5347 5340 5335 5329 5324 5319 5314 5310 5306 5303 5300 5297 5294 5292 5290
5587 5579 5571 5561 5552 5541 5531 5518 5506 5494 5483 5472 5461 5450 5440 5431 5422 5414 5408 5400 5390 5382 5374 5366 5360 5354 5349 5343 5337 5331 5325 5320 5315 5310 5305 5302 5298 5294 5291 5287 5285 5282 5280